Location: Bear Branch Nature Center
(39.6445°N, 76.9901°W)
Time: 16:12:09
(UTC-05:00)

Daily predictions for brighter satellites

Satellite Brightness Start Highest point End
(mag) Time Altitude Azimuth Time Altitude Azimuth Time Altitude Azimuth
SL-8 R/B 4.2 17:03:59 10° WSW 17:08:39 52° NNW 17:13:20 10° NE
Okean 1 3.8 17:05:17 10° SSE 17:09:07 43° E 17:12:59 10° NNE
SMAP 3.3 17:10:06 10° SE 17:14:32 46° ENE 17:18:58 10° N
Cosmos 1346 Rocket 3.4 17:11:29 10° SSE 17:15:01 33° E 17:18:32 10° NNE
Cosmos 1455 Rocket 3.0 17:14:50 10° N 17:19:16 78° E 17:23:42 10° S
Genesis I 3.2 17:16:30 10° NNW 17:20:25 65° ENE 17:24:17 10° SE
NOSS 2-1 (D) 4.1 17:18:36 10° S 17:22:02 33° ESE 17:25:44 10° NE
NOSS 2-1 (C) 4.2 17:19:17 10° S 17:22:43 32° ESE 17:26:26 10° NE
Delta 2 Rocket 4.0 17:21:00 10° WSW 17:24:20 40° S 17:28:01 10° E
Cosmos 1833 Rocket 3.3 17:19:39 10° N 17:24:44 33° ENE 17:29:45 10° ESE
ISS -0.8 17:24:06 10° NW 17:25:31 12° N 17:26:56 10° NNE
IDEFIX/ARIANE 42P 2.5 17:26:21 10° SSE 17:31:31 71° ENE 17:36:41 10° N
Cosmos 2082 Rocket 2.5 17:26:31 10° N 17:31:56 44° ENE 17:37:20 10° SE
Thor Agena Rocket 3.6 17:31:33 10° NNE 17:36:49 84° ESE 17:42:05 10° SSW
Tiangong 1 1.1 17:37:18 10° W 17:40:19 62° NNW 17:42:20 19° ENE
Cosmos 1500 3.1 17:36:34 10° N 17:40:24 70° E 17:44:15 10° SSE
Cosmos 1743 3.4 17:36:59 10° NNE 17:40:29 31° ENE 17:43:56 10° SE
NOSS 2-1 (E) 3.6 17:37:37 10° SSW 17:41:19 48° ESE 17:44:42 14° NE
TIMED 4.5 17:37:08 10° S 17:41:26 68° ESE 17:45:48 10° NNE
Okean 1-7 Rocket 4.0 17:37:30 10° SSE 17:41:43 40° E 17:45:54 10° NNE
ASTRO F (AKARI) 4.5 17:38:54 10° NNE 17:41:57 48° E 17:45:02 10° S
SJ-7 4.4 17:39:17 10° SSE 17:43:31 83° ENE 17:47:47 10° N
AQUARIUS 4.4 17:45:01 10° S 17:49:29 75° W 17:54:00 10° NNW
Cosmos 1484 Rocket 2.9 17:50:01 10° SSE 17:53:33 44° ENE 17:57:07 10° N
CZ-4 R/B 4.5 17:54:45 10° SSE 17:58:53 84° WSW 18:03:05 10° NNW
USA 234 3.5 17:53:20 12° NE 17:59:25 68° NW 18:05:52 10° WSW
Meteor 2-21 4.4 17:53:33 10° N 17:59:45 87° E 18:05:52 10° S
Cosmos 1975 3.8 17:56:17 10° NNW 18:00:14 50° W 18:04:07 10° S
CZ-4 R/B 3.3 18:02:16 10° SSW 18:06:03 34° W 18:09:49 10° NNW
Cosmos 1606 Rocket 4.2 18:02:52 10° NNE 18:06:55 33° ENE 18:10:58 10° SE
Meteor 1-13 Rocket 4.2 18:02:29 10° S 18:08:11 90° E 18:14:02 10° N
MSX 3.9 18:03:13 10° S 18:08:57 81° WSW 18:14:45 10° NNW
Meteor 1-23 Rocket 4.5 18:04:27 10° SSE 18:09:51 46° E 18:14:52 12° NNE
Cosmos 2369 Rocket 3.8 18:06:32 10° SE 18:08:55 16° ESE 18:08:55 16° ESE
Meteor 2-9 Rocket 4.4 18:04:57 10° N 18:10:06 43° ENE 18:15:08 10° SSE
Cosmos 2239 Rocket 4.4 18:04:11 10° N 18:10:19 61° E 18:16:22 10° SSE
Meteor 2-4 Rocket 3.6 18:08:44 10° S 18:13:58 57° E 18:19:06 11° NNE
Abrixas 2.4 18:11:14 10° WNW 18:14:11 80° SW 18:15:00 44° SE
CZ-2C R/B 3.8 18:09:28 10° S 18:14:13 43° W 18:19:08 10° NNW
COSMO-SKYMED 1 2.4 18:09:57 10° NNE 18:14:18 78° ESE 18:18:38 10° S
NOSS 3-4 (A) 3.9 18:08:08 10° NNW 18:14:59 53° NE 18:22:14 10° SE
NOSS 3-4 (C) 3.9 18:08:14 10° NNW 18:15:05 53° NE 18:22:19 10° SE
Meteor 2-14 Rocket 4.4 18:11:39 10° N 18:17:50 89° E 18:23:58 10° S
CZ-3B DEB 3.6 18:15:10 10° W 18:19:25 36° NNW 18:25:57 17° NE
Cosmos 2056 Rocket 3.5 18:15:27 10° S 18:20:43 61° ESE 18:23:51 24° NNE
Cosmos 407 Rocket 4.0 18:16:33 10° N 18:21:16 35° ENE 18:21:58 34° E
Cosmos 1821 Rocket 3.8 18:16:12 10° N 18:22:19 73° E 18:28:24 10° SSE
Cosmos 921 Rocket 3.8 18:20:45 10° SSW 18:24:53 49° WNW 18:28:57 11° N
Cosmos 1025 Rocket 2.9 18:20:34 10° S 18:24:55 79° E 18:28:12 18° N
NOAA 12 4.2 18:19:58 10° SSE 18:25:04 52° ENE 18:30:10 10° N
Cosmos 1605 Rocket 4.1 18:26:55 10° N 18:33:00 49° ENE 18:38:57 10° SSE
Cosmos 1624 Rocket 3.9 18:28:33 10° SSW 18:33:44 86° ESE 18:36:48 26° NNE
Cosmos 1340 4.4 18:33:31 10° SSE 18:34:57 21° SSE 18:34:57 21° SSE
Cosmos 1371 Rocket 4.3 18:34:08 10° SSW 18:39:27 69° WNW 18:43:24 19° N
METEOR-M 4.0 18:42:47 10° SSE 18:48:05 72° ENE 18:53:26 10° N
Cosmos 1666 3.4 18:50:56 10° NNW 18:54:43 55° W 18:58:30 10° S
GEOS 3 Rocket 3.5 19:00:07 66° NNE 19:00:07 66° NNE 19:04:54 10° NNW
Delta 2 Rocket 4.5 19:02:54 10° WSW 19:05:39 37° SW 19:05:39 37° SW
Cosmos 1833 Rocket 4.3 19:03:35 10° NW 19:08:36 34° WSW 19:13:35 10° SSW
Cosmos 1727 Rocket 3.8 19:03:15 10° S 19:09:28 81° E 19:10:52 56° NNE
Cosmos 1452 Rocket 4.1 19:04:30 10° S 19:08:13 46° S 19:08:13 46° S
Cosmos 1190 Rocket 4.3 19:06:57 10° NNW 19:12:10 66° WSW 19:15:36 21° S
Cosmos 2082 Rocket 4.3 19:11:11 10° NW 19:15:43 25° WSW 19:20:14 10° SSW
Tiangong 1 4.4 19:13:48 10° WNW 19:14:01 11° WNW 19:14:01 11° WNW
Cosmos 1892 Rocket 4.5 19:13:14 10° SSW 19:17:15 46° W 19:17:15 46° W
FALCON 9 R/B 3.1 19:04:05 10° W 19:23:11 64° S 19:24:36 54° SE
Cosmos 2369 Rocket 3.6 19:47:47 10° SSW 19:50:46 32° SW 19:50:46 32° SW
ATLAS 3B CENTAUR R/B 4.4 20:12:09 10° W 20:22:53 28° SW 20:23:21 27° SSW
